Hoquiam, WA

7:40 PM PST on January 20, 2017 (GMT -0800)
Bowerman

Weather History for KHQM - October, 2012

Change the Weather History Date:

Thursday, October 25, 2012

  Actual Average Record
Temperature  
Mean Temperature 47 °F 50 °F  
Max Temperature 54 °F 56 °F 71 °F (1965)
Min Temperature 41 °F 44 °F 32 °F (1954)
Degree Days  
Heating Degree Days 18 15  
Month to date heating degree days 301  
Cooling Degree Days 0 0  
Month to date cooling degree days 0  
Year to date cooling degree days 23  
Moisture  
Dew Point 44 °F    
Average Humidity 91    
Maximum Humidity 100    
Minimum Humidity 77    
Precipitation  
Precipitation 0.31 in 0.27 in 1.58 in (1971)
Month to date precipitation 4.76  
Year to date precipitation 44.65  
Sea Level Pressure  
Sea Level Pressure 30.32 in    
Wind  
Wind Speed 7 mph (ENE)    
Max Wind Speed 10 mph    
Max Gust Speed -    
Visibility 7 miles    
Events Rain    
T = Trace of Precipitation, MM = Missing Value Source: NWS Daily Summary

Daily Weather History Graph

Daily Weather History Graph

Search for Another Location

Airport or City:

Trip Planner

Search our weather history database for the weather conditions in past years. The results will help you decide how hot, cold, wet, or windy it might be!

Date:

Astronomy

Oct. 25, 2012 Rise Set
Actual Time 7:48 AM PDT 6:09 PM PDT
Civil Twilight 7:17 AM PDT 6:41 PM PDT
Nautical Twilight 6:42 AM PDT 7:16 PM PDT
Astronomical Twilight 6:06 AM PDT 7:51 PM PDT
Moon 4:10 PM PDT (10/25) 3:37 AM PDT (10/25)
Length of Visible Light 11h 23m
Length of Day
10h 20m
Waxing Gibbous, 85% of the Moon is Illuminated
Oct 25
Waxing Gibbous
Oct 29
Full
Nov 6
Last Quarter
Nov 13
New
Nov 20
First Quarter

Hourly Weather History & Observations

Time (PDT) Temp. Windchill Dew Point Humidity Pressure Visibility Wind Dir Wind Speed Gust Speed Precip Events Conditions
12:53 AM 43.0 °F 40.3 °F 42.1 °F 97% 30.19 in 7.0 mi NE 4.6 mph - N/A   Mostly Cloudy
1:53 AM 42.1 °F 39.2 °F 41.0 °F 96% 30.21 in 7.0 mi NE 4.6 mph - N/A   Mostly Cloudy
2:21 AM 42.8 °F 38.6 °F 41.0 °F 93% 30.21 in 6.0 mi NE 6.9 mph - N/A   Partly Cloudy
2:53 AM 42.1 °F 38.4 °F 41.0 °F 96% 30.23 in 8.0 mi ENE 5.8 mph - N/A   Mostly Cloudy
3:53 AM 41.0 °F 37.1 °F 39.9 °F 96% 30.25 in 6.0 mi ENE 5.8 mph - N/A   Mostly Cloudy
4:53 AM 41.0 °F 37.1 °F 41.0 °F 100% 30.26 in 6.0 mi ENE 5.8 mph - N/A   Mostly Cloudy
5:22 AM 42.8 °F 37.0 °F 42.8 °F 100% 30.27 in 7.0 mi West 10.4 mph - N/A   Overcast
5:40 AM 44.6 °F 40.7 °F 42.8 °F 93% 30.27 in 1.8 mi East 6.9 mph - 0.10 in Rain Heavy Rain
5:49 AM 44.6 °F 40.2 °F 42.8 °F 93% 30.27 in 3.0 mi ENE 8.1 mph - 0.13 in Rain Rain
5:53 AM 44.1 °F 39.5 °F 43.0 °F 96% 30.28 in 3.0 mi ENE 8.1 mph - 0.15 in Rain Rain
6:18 AM 44.6 °F 41.4 °F 42.8 °F 93% 30.28 in 3.0 mi ENE 5.8 mph - 0.07 in Rain Heavy Rain
6:24 AM 44.6 °F 40.2 °F 42.8 °F 93% 30.28 in 2.5 mi East 8.1 mph - 0.08 in Rain Rain
6:34 AM 44.6 °F 40.2 °F 42.8 °F 93% 30.28 in 4.0 mi ENE 8.1 mph - 0.10 in Rain Light Rain
6:53 AM 44.1 °F 40.1 °F 43.0 °F 96% 30.30 in 10.0 mi ENE 6.9 mph - 0.10 in Rain Light Rain
7:12 AM 44.6 °F 40.2 °F 42.8 °F 93% 30.30 in 6.0 mi NE 8.1 mph - 0.00 in   Overcast
7:28 AM 44.6 °F 41.4 °F 42.8 °F 93% 30.31 in 4.0 mi ENE 5.8 mph - 0.01 in Rain Rain
7:53 AM 44.1 °F 39.5 °F 42.1 °F 93% 30.33 in 6.0 mi ENE 8.1 mph - 0.04 in Rain Light Rain
8:53 AM 44.1 °F 40.1 °F 43.0 °F 96% 30.36 in 5.0 mi ENE 6.9 mph - 0.02 in   Overcast
9:01 AM 44.6 °F 39.7 °F 42.8 °F 93% 30.35 in 5.0 mi ENE 9.2 mph - N/A   Overcast
9:21 AM 44.6 °F 40.2 °F 42.8 °F 93% 30.35 in 6.0 mi ENE 8.1 mph - N/A   Overcast
9:31 AM 44.6 °F 40.2 °F 42.8 °F 93% 30.36 in 5.0 mi ENE 8.1 mph - N/A   Overcast
10:32 AM 48.2 °F - 44.6 °F 87% 30.37 in 10.0 mi ENE 6.9 mph - N/A   Partly Cloudy
10:53 AM 48.0 °F - 45.0 °F 89% 30.40 in 10.0 mi ENE 8.1 mph - N/A   Mostly Cloudy
11:53 AM 48.9 °F - 46.9 °F 93% 30.40 in 9.0 mi East 10.4 mph - N/A   Partly Cloudy
12:53 PM 52.0 °F - 46.9 °F 83% 30.40 in - East 10.4 mph - N/A   Partly Cloudy
1:53 PM 53.1 °F - 46.0 °F 77% 30.40 in 10.0 mi East 6.9 mph - N/A   Mostly Cloudy
2:53 PM 53.1 °F - 46.0 °F 77% 30.40 in 10.0 mi ENE 4.6 mph - N/A   Mostly Cloudy
3:31 PM 53.6 °F - 46.4 °F 77% 30.39 in 10.0 mi NE 4.6 mph - N/A   Overcast
3:53 PM 53.1 °F - 46.9 °F 80% 30.40 in 10.0 mi ENE 5.8 mph - N/A   Overcast
4:32 PM 51.8 °F - 46.4 °F 82% 30.38 in 10.0 mi East 9.2 mph - N/A   Overcast
4:53 PM 51.1 °F - 46.0 °F 83% 30.39 in 10.0 mi East 9.2 mph - N/A   Scattered Clouds
5:53 PM 50.0 °F - 46.4 °F 87% 30.38 in 10.0 mi NE 3.5 mph - N/A   Clear
6:53 PM 48.9 °F - 46.0 °F 90% 30.37 in 10.0 mi NE 4.6 mph - N/A   Clear
7:53 PM 48.9 °F - 46.0 °F 90% 30.37 in 10.0 mi NE 5.8 mph - N/A   Clear
8:53 PM 48.0 °F - 46.0 °F 93% 30.36 in 10.0 mi NNE 4.6 mph - N/A   Clear
9:53 PM 48.0 °F - 45.0 °F 89% 30.32 in 10.0 mi NE 8.1 mph - N/A   Clear
10:53 PM 48.0 °F - 45.0 °F 89% 30.33 in 10.0 mi ENE 5.8 mph - N/A   Clear
11:53 PM 46.9 °F - 44.1 °F 90% 30.30 in 10.0 mi ENE 5.8 mph - N/A   Partly Cloudy